Flag for U.S.A. Weather past 2 weeks in Arden-Arcade, California, U.S.A.

Now
46 °F

Clear.


Feels Like: 42 °F
Forecast: 48 / 73 °F
Wind: 8 mph from Southeast

Location: Mather Field


UV Index: 5 (Moderate)

Visibility: 10 mi


Pressure: 30.03 "Hg

Humidity: 100%

Dew point: 46 °F

Location of Arden-ArcadeLocation

Historic Weather in Arden-Arcade

°F

Arden-Arcade temperature yesterday

Maximum temperature yesterday: 72 °F (at 5:45 PM)
Minimum temperature yesterday: 37 °F (at 5:46 AM)
Average temperature yesterday: 56 °F

Past Weeks' High & Low Weather Summary

 TemperatureHumidityPressure
High82 °F (Apr 17, 3:45 PM)100% (Apr 9, 6:53 AM)30.12 "Hg (Apr 9, 6:53 AM)
Low37 °F (Apr 23, 5:46 AM)17% (Apr 20, 5:55 PM)29.75 "Hg (Apr 17, 5:50 PM)
Average62 °F67%29.94 "Hg
* Reported Apr 9 5:46 AM — Apr 24 5:52 AM, Arden-Arcade, Weather by CustomWeather, © 2014

Note: Actual official high and low records may vary slightly from our data, if they occured in-between our weather recording intervals... More about our weather records

Advertising

Historic Weather Conditions — Data for Previous 24 hours

 ConditionsComfort  
Time TempWeatherWind HumidityBarometerVisibility
5:52 AM
Apr 24
46 °FClear.8 mph100%30.03 "Hg10 mi
4:50 AM48 °FClear.7 mph100%30.03 "Hg10 mi
3:50 AM46 °FClear.6 mph100%30.05 "Hg10 mi
2:55 AM46 °FClear.6 mph100%30.05 "Hg10 mi
11:30 PM
Apr 23
50 °FPassing clouds.6 mph94%30.06 "Hg10 mi
10:45 PM50 °FPassing clouds.3 mph94%30.06 "Hg10 mi
9:45 PM54 °FPassing clouds.3 mph82%30.06 "Hg10 mi
8:45 PM59 °FScattered clouds.5 mph63%30.05 "Hg10 mi
7:55 PM63 °FScattered clouds.5 mph52%30.04 "Hg10 mi
6:45 PM68 °FScattered clouds.No wind28%30.03 "Hg10 mi
5:45 PM72 °FScattered clouds.10 mph23%30.03 "Hg10 mi
3:55 PM70 °FPassing clouds.5 mph25%30.05 "Hg10 mi
2:45 PM68 °FPassing clouds.9 mph28%30.07 "Hg10 mi
1:45 PM68 °FPassing clouds.9 mph30%30.09 "Hg10 mi
12:45 PM66 °FPassing clouds.12 mph35%30.10 "Hg10 mi
11:45 AM63 °FPassing clouds.7 mph42%30.12 "Hg10 mi
10:45 AM59 °FPassing clouds.3 mph51%30.12 "Hg10 mi
9:47 AM55 °FPassing clouds.5 mph59%30.12 "Hg10 mi
8:45 AM50 °FPassing clouds.No wind82%30.12 "Hg10 mi
6:50 AM41 °FClear.No wind100%30.10 "Hg10 mi
Weather by CustomWeather, © 2014

See weather overview